Location: Newark
(48.1500°N, 13.1167°E)
Time: 17:53:58
(UTC+00:00)

XW-2D - Pass Details

Date: 08 December 2021
Orbit: 502 x 522 km, 97.5° (Epoch: 17 January)

Event Time Altitude Azimuth Distance (km) Brightness Sun altitude
Rises 04:44:57 0° 19° (NNE) 2,668 ? -19.1°
Reaches altitude 10° 04:47:11 10° 27° (NNE) 1,773 ? -18.7°
Maximum altitude 04:50:47 39° 98° (E) 796 ? -18.1°
Drops below altitude 10° 04:54:22 10° 168° (SSE) 1,754 ? -17.5°
Sets 04:56:32 0° 176° (S) 2,635 ? -17.2°
